245P/WISE (2010)

Japanese version
Home page
Updated on October 3, 2010

---------------------------------------------------------------------

* Profile

Designation 245P/2010 L1
Discovery Date June 2, 2010
Magnitude
Discoverer Wide Field Infrared Survey Explorer (NASA)

* Orbital Elements

Epoch 2010 Feb. 13.0 TT = JDT 2455240.5
T 2010 Feb. 4.57272 TT                                  MPC
q   2.1395472            (2000.0)            P               Q
n   0.12285945     Peri.  316.42034     +0.11683921     +0.96413967
a   4.0074090      Node   318.52822     -0.78365286     -0.05789754
e   0.4661021      Incl.   21.08926     -0.61011212     +0.25900303
P   8.02

* Magnitudes Graph

        m1 = 14.7 + 5 log d + 10.0 log r

---------------------------------------------------------------------

The orbital elements are published on M.P.E.C. 2010-R23.
The magnitudes graphs are made with Comet for Windows.

---------------------------------------------------------------------

Copyright(C) Seiichi Yoshida (comet@aerith.net). All rights reserved.